User: anonymous   Login
Location: Unspecified
(0.0000°N, 0.0000°E)
Time: 17:28:50
(UTC+00:00)
Language:

NOAA 18 - Orbit

View from above orbital plane
View from above orbital plane
View from above satellite
View from above satellite

Ground track
Ground track

The orbit data is extracted from the following two-line orbital elements,

1 28654U 05018A   18264.73411407 -.00000002 +00000-0 +23842-4 0  9993
2 28654 099.1370 302.1113 0013851 212.9986 147.0321 14.12385245687310
Epoch (UTC): 21 September 2018 17:37:07
Eccentricity: 0.0013851
inclination: 99.1370°
perigee height: 841 km
apogee height: 861 km
right ascension of ascending node: 302.1113°
argument of perigee: 212.9986°
revolutions per day: 14.12385245
mean anomaly at epoch: 147.0321°
orbit number at epoch: 68731

The dashed part of the orbit path shows where the satellite is in the earth's shadow,  

DLR